METEOR 2-17 DEB

Satellite information

Favourite Embed

Satellite Type and Status

DEBRISIN ORBIT

Key statistics

Satellite METEOR 2-17 DEB at a glance.

Uptime

13673

Days in orbit

Revolutions

≈ 14.0

Per day

Orbit

LEO

Low Earth Orbit

Inclination

82.5

Latest

Satellite identification and parameters

Extended collection of information and parameters for METEOR 2-17 DEB.

Object identification

Identified? True

Debris? True

Object name: METEOR 2-17 DEB

International designator: 1988-005N

Object number (NORAD): 29299

Object ID (CCSDS): 29299

Country: COMMONWEALTH OF INDEPENDENT STATES (CIS)

Current information (Y/N): Y

RCS size: SMALL

Orbital parameters

Period: 102.526 minutes

Inclination: 82.5344 deg

SMA: 7256.308 km

Apoapsis: 905.469 km

Periapsis: 850.877 km

RAAN: 184.3856 deg

Eccentricy: 0.0037617

Argument of periapsis: 157.5958 deg

Mean anomaly: 202.6867 deg

Mean motion: 14.04524079 rev/day

Mean motion (dot): 0.00001935 rev/day2

B* drag term: 0.0011957 1/REarth

Two-line elements (TLE)

Creation date: June 20, 2025, 2:36 p.m.

Reference frame: TEME

Reference center: EARTH

Epoch: June 17, 2025, 6:13 p.m. UTC

TLE line 0: 0 METEOR 2-17 DEB

TLE line 1: 1 29299U 88005N 25168.75956131 .00001935 00000-0 11957-2 0 9994

TLE line 2: 2 29299 82.5344 184.3856 0037617 157.5958 202.6867 14.04524079970797

Live tracking on map

Real-time ground track for satellite METEOR 2-17 DEB.

In-orbit conjunctions

A list of the most updated potential collisions computed for object METEOR 2-17 DEB.

Target Orbit TCA Probability of collision Miss distance Type
CZ-6A DEB LEO 2025-01-11 05:37:56 0.0003428539 134.0 (m) DEBRIS

Associated space launch

Second generation soviet meteorological satellite

METEOR 2-17 DEB was lifted into orbit during the mission ‘Tsiklon-3 | Meteor-2 17’, on board a Tsiklon-3 space rocket.

The launch took place on Jan. 30, 1988, 10:59 a.m. from 32/1.

For more information about the launch, click the button.

Launch to space Tsiklon-3 | Meteor-2 17
Tsiklon-3 | Meteor-2 17

Agency: N/A

Status: Launch Successful

Launch date: Jan. 30, 1988, 10:59 a.m. UTC

Rocket: Tsiklon-3

Launch pad: 32/1

Location: Plesetsk Cosmodrome, Russian Federation

...

Latest news about this satellite

There are no fresh news available about this satellite. Check back as we update our databases every day.


Newsletter sign-up

Weekly statistics, charts and insights to help you stay on top of the space industry.